Year,Month,Day,Hour,Minute,Value (Times are PST for insolation in W/m^2)
2016,08,08,00,00,0.00
2016,08,08,00,01,0.00
2016,08,08,00,02,0.00
2016,08,08,00,03,0.00
2016,08,08,00,04,0.00
2016,08,08,00,05,0.00
2016,08,08,00,06,0.00
2016,08,08,00,07,0.00
2016,08,08,00,08,0.00
2016,08,08,00,09,0.00
2016,08,08,00,10,0.00
2016,08,08,00,11,0.00
2016,08,08,00,12,0.00
2016,08,08,00,13,0.00
2016,08,08,00,14,0.00
2016,08,08,00,15,0.00
2016,08,08,00,16,0.00
2016,08,08,00,17,0.00
2016,08,08,00,18,0.00
2016,08,08,00,19,0.00
2016,08,08,00,20,0.00
2016,08,08,00,21,0.00
2016,08,08,00,22,0.00
2016,08,08,00,23,0.00
2016,08,08,00,24,0.00
2016,08,08,00,25,0.00
2016,08,08,00,26,0.00
2016,08,08,00,27,0.00
2016,08,08,00,28,0.00
2016,08,08,00,29,0.00
2016,08,08,00,30,0.00
2016,08,08,00,31,0.00
2016,08,08,00,32,0.00
2016,08,08,00,33,0.00
2016,08,08,00,34,0.00
2016,08,08,00,35,0.00
2016,08,08,00,36,0.00
2016,08,08,00,37,0.00
2016,08,08,00,38,0.00
2016,08,08,00,39,0.00
2016,08,08,00,40,0.00
2016,08,08,00,41,0.00
2016,08,08,00,42,0.00
2016,08,08,00,43,0.00
2016,08,08,00,44,0.00
2016,08,08,00,45,0.00
2016,08,08,00,46,0.00
2016,08,08,00,47,0.00
2016,08,08,00,48,0.00
2016,08,08,00,49,0.00
2016,08,08,00,50,0.00
2016,08,08,00,51,0.00
2016,08,08,00,52,0.00
2016,08,08,00,53,0.00
2016,08,08,00,54,0.00
2016,08,08,00,55,0.00
2016,08,08,00,56,0.00
2016,08,08,00,57,0.00
2016,08,08,00,58,0.00
2016,08,08,00,59,0.00
2016,08,08,01,00,0.00
2016,08,08,01,01,0.00
2016,08,08,01,02,0.00
2016,08,08,01,03,0.00
2016,08,08,01,04,0.00
2016,08,08,01,05,0.00
2016,08,08,01,06,0.00
2016,08,08,01,07,0.00
2016,08,08,01,08,0.00
2016,08,08,01,09,0.00
2016,08,08,01,10,0.00
2016,08,08,01,11,0.00
2016,08,08,01,12,0.00
2016,08,08,01,13,0.00
2016,08,08,01,14,0.00
2016,08,08,01,15,0.00
2016,08,08,01,16,0.00
2016,08,08,01,17,0.00
2016,08,08,01,18,0.00
2016,08,08,01,19,0.00
2016,08,08,01,20,0.00
2016,08,08,01,21,0.00
2016,08,08,01,22,0.00
2016,08,08,01,23,0.00
2016,08,08,01,24,0.00
2016,08,08,01,25,0.00
2016,08,08,01,26,0.00
2016,08,08,01,27,0.00
2016,08,08,01,28,0.00
2016,08,08,01,29,0.00
2016,08,08,01,30,0.00
2016,08,08,01,31,0.00
2016,08,08,01,32,0.00
2016,08,08,01,33,0.00
2016,08,08,01,34,0.00
2016,08,08,01,35,0.00
2016,08,08,01,36,0.00
2016,08,08,01,37,0.00
2016,08,08,01,38,0.00
2016,08,08,01,39,0.00
2016,08,08,01,40,0.00
2016,08,08,01,41,0.00
2016,08,08,01,42,0.00
2016,08,08,01,43,0.00
2016,08,08,01,44,0.00
2016,08,08,01,45,0.00
2016,08,08,01,46,0.00
2016,08,08,01,47,0.00
2016,08,08,01,48,0.00
2016,08,08,01,49,0.00
2016,08,08,01,50,0.00
2016,08,08,01,51,0.00
2016,08,08,01,52,0.00
2016,08,08,01,53,0.00
2016,08,08,01,54,0.00
2016,08,08,01,55,0.00
2016,08,08,01,56,0.00
2016,08,08,01,57,0.00
2016,08,08,01,58,0.00
2016,08,08,01,59,0.00
2016,08,08,02,00,0.00
2016,08,08,02,01,0.00
2016,08,08,02,02,0.00
2016,08,08,02,03,0.00
2016,08,08,02,04,0.00
2016,08,08,02,05,0.00
2016,08,08,02,06,0.00
2016,08,08,02,07,0.00
2016,08,08,02,08,0.00
2016,08,08,02,09,0.00
2016,08,08,02,10,0.00
2016,08,08,02,11,0.00
2016,08,08,02,12,0.00
2016,08,08,02,13,0.00
2016,08,08,02,14,0.00
2016,08,08,02,15,0.00
2016,08,08,02,16,0.00
2016,08,08,02,17,0.00
2016,08,08,02,18,0.00
2016,08,08,02,19,0.00
2016,08,08,02,20,0.00
2016,08,08,02,21,0.00
2016,08,08,02,22,0.00
2016,08,08,02,23,0.00
2016,08,08,02,24,0.00
2016,08,08,02,25,0.00
2016,08,08,02,26,0.00
2016,08,08,02,27,0.00
2016,08,08,02,28,0.00
2016,08,08,02,29,0.00
2016,08,08,02,30,0.00
2016,08,08,02,31,0.00
2016,08,08,02,32,0.00
2016,08,08,02,33,0.00
2016,08,08,02,34,0.00
2016,08,08,02,35,0.00
2016,08,08,02,36,0.00
2016,08,08,02,37,0.00
2016,08,08,02,38,0.00
2016,08,08,02,39,0.00
2016,08,08,02,40,0.00
2016,08,08,02,41,0.00
2016,08,08,02,42,0.00
2016,08,08,02,43,0.00
2016,08,08,02,44,0.00
2016,08,08,02,45,0.00
2016,08,08,02,46,0.00
2016,08,08,02,47,0.00
2016,08,08,02,48,0.00
2016,08,08,02,49,0.00
2016,08,08,02,50,0.00
2016,08,08,02,51,0.00
2016,08,08,02,52,0.00
2016,08,08,02,53,0.00
2016,08,08,02,54,0.00
2016,08,08,02,55,0.00
2016,08,08,02,56,0.00
2016,08,08,02,57,0.00
2016,08,08,02,58,0.00
2016,08,08,02,59,0.00
2016,08,08,03,00,0.00
2016,08,08,03,01,0.00
2016,08,08,03,02,0.00
2016,08,08,03,03,0.00
2016,08,08,03,04,0.00
2016,08,08,03,05,0.00
2016,08,08,03,06,0.00
2016,08,08,03,07,0.00
2016,08,08,03,08,0.00
2016,08,08,03,09,0.00
2016,08,08,03,10,0.00
2016,08,08,03,11,0.00
2016,08,08,03,12,0.00
2016,08,08,03,13,0.00
2016,08,08,03,14,0.00
2016,08,08,03,15,0.00
2016,08,08,03,16,0.00
2016,08,08,03,17,0.00
2016,08,08,03,18,0.00
2016,08,08,03,19,0.00
2016,08,08,03,20,0.00
2016,08,08,03,21,0.00
2016,08,08,03,22,0.00
2016,08,08,03,23,0.00
2016,08,08,03,24,0.00
2016,08,08,03,25,0.00
2016,08,08,03,26,0.00
2016,08,08,03,27,0.00
2016,08,08,03,28,0.00
2016,08,08,03,29,0.00
2016,08,08,03,30,0.00
2016,08,08,03,31,0.00
2016,08,08,03,32,0.00
2016,08,08,03,33,0.00
2016,08,08,03,34,0.00
2016,08,08,03,35,0.00
2016,08,08,03,36,0.00
2016,08,08,03,37,0.00
2016,08,08,03,38,0.00
2016,08,08,03,39,0.00
2016,08,08,03,40,0.00
2016,08,08,03,41,0.00
2016,08,08,03,42,0.00
2016,08,08,03,43,0.00
2016,08,08,03,44,0.00
2016,08,08,03,45,0.00
2016,08,08,03,46,0.00
2016,08,08,03,47,0.00
2016,08,08,03,48,0.00
2016,08,08,03,49,0.00
2016,08,08,03,50,0.00
2016,08,08,03,51,0.00
2016,08,08,03,52,0.00
2016,08,08,03,53,0.00
2016,08,08,03,54,0.00
2016,08,08,03,55,0.00
2016,08,08,03,56,0.00
2016,08,08,03,57,0.00
2016,08,08,03,58,0.00
2016,08,08,03,59,0.00
2016,08,08,04,00,0.00
2016,08,08,04,01,0.00
2016,08,08,04,02,0.00
2016,08,08,04,03,0.00
2016,08,08,04,04,0.00
2016,08,08,04,05,0.00
2016,08,08,04,06,0.00
2016,08,08,04,07,0.00
2016,08,08,04,08,0.00
2016,08,08,04,09,0.00
2016,08,08,04,10,0.00
2016,08,08,04,11,0.00
2016,08,08,04,12,0.00
2016,08,08,04,13,0.00
2016,08,08,04,14,0.00
2016,08,08,04,15,0.00
2016,08,08,04,16,0.00
2016,08,08,04,17,0.00
2016,08,08,04,18,0.00
2016,08,08,04,19,0.00
2016,08,08,04,20,0.00
2016,08,08,04,21,0.00
2016,08,08,04,22,0.00
2016,08,08,04,23,0.00
2016,08,08,04,24,0.00
2016,08,08,04,25,0.00
2016,08,08,04,26,0.00
2016,08,08,04,27,0.00
2016,08,08,04,28,0.00
2016,08,08,04,29,0.00
2016,08,08,04,30,0.00
2016,08,08,04,31,0.00
2016,08,08,04,32,0.00
2016,08,08,04,33,0.00
2016,08,08,04,34,0.00
2016,08,08,04,35,0.00
2016,08,08,04,36,0.00
2016,08,08,04,37,0.00
2016,08,08,04,38,0.00
2016,08,08,04,39,0.00
2016,08,08,04,40,0.00
2016,08,08,04,41,0.00
2016,08,08,04,42,0.00
2016,08,08,04,43,0.00
2016,08,08,04,44,0.00
2016,08,08,04,45,0.00
2016,08,08,04,46,0.00
2016,08,08,04,47,0.00
2016,08,08,04,48,0.00
2016,08,08,04,49,0.00
2016,08,08,04,50,0.00
2016,08,08,04,51,0.00
2016,08,08,04,52,0.00
2016,08,08,04,53,0.00
2016,08,08,04,54,0.00
2016,08,08,04,55,0.00
2016,08,08,04,56,0.00
2016,08,08,04,57,0.00
2016,08,08,04,58,0.00
2016,08,08,04,59,0.00
2016,08,08,05,00,0.00
2016,08,08,05,01,0.00
2016,08,08,05,02,0.00
2016,08,08,05,03,0.00
2016,08,08,05,04,0.00
2016,08,08,05,05,0.00
2016,08,08,05,06,0.00
2016,08,08,05,07,0.00
2016,08,08,05,08,0.00
2016,08,08,05,09,0.00
2016,08,08,05,10,0.00
2016,08,08,05,11,0.00
2016,08,08,05,12,0.00
2016,08,08,05,13,0.00
2016,08,08,05,14,0.00
2016,08,08,05,15,0.00
2016,08,08,05,16,0.00
2016,08,08,05,17,0.00
2016,08,08,05,18,0.00
2016,08,08,05,19,0.00
2016,08,08,05,20,0.00
2016,08,08,05,21,0.00
2016,08,08,05,22,0.00
2016,08,08,05,23,0.00
2016,08,08,05,24,0.00
2016,08,08,05,25,0.00
2016,08,08,05,26,0.00
2016,08,08,05,27,0.00
2016,08,08,05,28,0.00
2016,08,08,05,29,0.00
2016,08,08,05,30,0.00
2016,08,08,05,31,0.00
2016,08,08,05,32,0.00
2016,08,08,05,33,0.00
2016,08,08,05,34,0.00
2016,08,08,05,35,0.00
2016,08,08,05,36,0.00
2016,08,08,05,37,0.00
2016,08,08,05,38,0.00
2016,08,08,05,39,0.00
2016,08,08,05,40,0.00
2016,08,08,05,41,0.00
2016,08,08,05,42,0.00
2016,08,08,05,43,0.00
2016,08,08,05,44,0.00
2016,08,08,05,45,0.00
2016,08,08,05,46,0.00
2016,08,08,05,47,0.00
2016,08,08,05,48,0.00
2016,08,08,05,49,0.00
2016,08,08,05,50,0.00
2016,08,08,05,51,0.00
2016,08,08,05,52,0.00
2016,08,08,05,53,0.00
2016,08,08,05,54,0.00
2016,08,08,05,55,0.00
2016,08,08,05,56,0.00
2016,08,08,05,57,0.00
2016,08,08,05,58,0.00
2016,08,08,05,59,0.00
2016,08,08,06,00,0.00
2016,08,08,06,01,0.00
2016,08,08,06,02,0.00
2016,08,08,06,03,0.00
2016,08,08,06,04,2.60
2016,08,08,06,05,5.00
2016,08,08,06,06,5.00
2016,08,08,06,07,6.40
2016,08,08,06,08,5.40
2016,08,08,06,09,5.00
2016,08,08,06,10,5.00
2016,08,08,06,11,5.00
2016,08,08,06,12,5.20
2016,08,08,06,13,7.30
2016,08,08,06,14,9.40
2016,08,08,06,15,11.00
2016,08,08,06,16,11.40
2016,08,08,06,17,12.00
2016,08,08,06,18,12.00
2016,08,08,06,19,13.10
2016,08,08,06,20,14.00
2016,08,08,06,21,15.30
2016,08,08,06,22,17.40
2016,08,08,06,23,18.80
2016,08,08,06,24,19.00
2016,08,08,06,25,19.00
2016,08,08,06,26,20.90
2016,08,08,06,27,23.10
2016,08,08,06,28,25.00
2016,08,08,06,29,25.00
2016,08,08,06,30,25.00
2016,08,08,06,31,25.00
2016,08,08,06,32,25.00
2016,08,08,06,33,25.50
2016,08,08,06,34,27.10
2016,08,08,06,35,29.20
2016,08,08,06,36,31.30
2016,08,08,06,37,32.70
2016,08,08,06,38,34.60
2016,08,08,06,39,36.70
2016,08,08,06,40,37.00
2016,08,08,06,41,38.90
2016,08,08,06,42,39.00
2016,08,08,06,43,40.00
2016,08,08,06,44,40.00
2016,08,08,06,45,39.70
2016,08,08,06,46,39.30
2016,08,08,06,47,40.00
2016,08,08,06,48,40.90
2016,08,08,06,49,42.00
2016,08,08,06,50,40.80
2016,08,08,06,51,39.30
2016,08,08,06,52,37.50
2016,08,08,06,53,35.40
2016,08,08,06,54,32.50
2016,08,08,06,55,28.40
2016,08,08,06,56,26.00
2016,08,08,06,57,25.00
2016,08,08,06,58,25.00
2016,08,08,06,59,25.00
2016,08,08,07,00,25.00
2016,08,08,07,01,25.00
2016,08,08,07,02,25.40
2016,08,08,07,03,26.00
2016,08,08,07,04,27.00
2016,08,08,07,05,28.00
2016,08,08,07,06,30.60
2016,08,08,07,07,34.20
2016,08,08,07,08,36.60
2016,08,08,07,09,39.50
2016,08,08,07,10,46.60
2016,08,08,07,11,53.80
2016,08,08,07,12,58.40
2016,08,08,07,13,62.20
2016,08,08,07,14,64.20
2016,08,08,07,15,69.30
2016,08,08,07,16,70.00
2016,08,08,07,17,69.60
2016,08,08,07,18,67.20
2016,08,08,07,19,63.50
2016,08,08,07,20,59.70
2016,08,08,07,21,55.40
2016,08,08,07,22,51.80
2016,08,08,07,23,49.50
2016,08,08,07,24,47.30
2016,08,08,07,25,47.00
2016,08,08,07,26,48.90
2016,08,08,07,27,51.20
2016,08,08,07,28,53.20
2016,08,08,07,29,54.00
2016,08,08,07,30,54.60
2016,08,08,07,31,56.70
2016,08,08,07,32,61.30
2016,08,08,07,33,67.90
2016,08,08,07,34,78.50
2016,08,08,07,35,104.80
2016,08,08,07,36,137.90
2016,08,08,07,37,184.40
2016,08,08,07,38,214.20
2016,08,08,07,39,222.20
2016,08,08,07,40,226.60
2016,08,08,07,41,216.60
2016,08,08,07,42,203.10
2016,08,08,07,43,222.70
2016,08,08,07,44,220.80
2016,08,08,07,45,217.60
2016,08,08,07,46,211.00
2016,08,08,07,47,208.20
2016,08,08,07,48,171.30
2016,08,08,07,49,115.00
2016,08,08,07,50,133.50
2016,08,08,07,51,199.40
2016,08,08,07,52,221.70
2016,08,08,07,53,226.00
2016,08,08,07,54,228.60
2016,08,08,07,55,229.90
2016,08,08,07,56,234.20
2016,08,08,07,57,237.10
2016,08,08,07,58,239.00
2016,08,08,07,59,240.00
2016,08,08,08,00,243.80
2016,08,08,08,01,246.00
2016,08,08,08,02,248.00
2016,08,08,08,03,252.80
2016,08,08,08,04,256.00
2016,08,08,08,05,257.60
2016,08,08,08,06,259.30
2016,08,08,08,07,262.80
2016,08,08,08,08,266.40
2016,08,08,08,09,268.70
2016,08,08,08,10,271.70
2016,08,08,08,11,275.90
2016,08,08,08,12,278.20
2016,08,08,08,13,281.30
2016,08,08,08,14,284.00
2016,08,08,08,15,287.30
2016,08,08,08,16,289.40
2016,08,08,08,17,293.30
2016,08,08,08,18,295.90
2016,08,08,08,19,299.10
2016,08,08,08,20,301.60
2016,08,08,08,21,304.60
2016,08,08,08,22,308.20
2016,08,08,08,23,310.50
2016,08,08,08,24,309.30
2016,08,08,08,25,306.50
2016,08,08,08,26,303.20
2016,08,08,08,27,322.10
2016,08,08,08,28,323.60
2016,08,08,08,29,327.40
2016,08,08,08,30,329.20
2016,08,08,08,31,330.70
2016,08,08,08,32,332.80
2016,08,08,08,33,335.80
2016,08,08,08,34,338.50
2016,08,08,08,35,341.40
2016,08,08,08,36,344.30
2016,08,08,08,37,347.10
2016,08,08,08,38,351.00
2016,08,08,08,39,352.90
2016,08,08,08,40,354.80
2016,08,08,08,41,355.00
2016,08,08,08,42,359.50
2016,08,08,08,43,364.00
2016,08,08,08,44,365.20
2016,08,08,08,45,370.10
2016,08,08,08,46,373.40
2016,08,08,08,47,374.70
2016,08,08,08,48,377.80
2016,08,08,08,49,380.50
2016,08,08,08,50,382.20
2016,08,08,08,51,385.60
2016,08,08,08,52,387.70
2016,08,08,08,53,391.00
2016,08,08,08,54,393.70
2016,08,08,08,55,396.70
2016,08,08,08,56,399.00
2016,08,08,08,57,403.10
2016,08,08,08,58,404.60
2016,08,08,08,59,408.40
2016,08,08,09,00,410.30
2016,08,08,09,01,412.30
2016,08,08,09,02,416.20
2016,08,08,09,03,418.90
2016,08,08,09,04,422.00
2016,08,08,09,05,424.60
2016,08,08,09,06,426.30
2016,08,08,09,07,428.40
2016,08,08,09,08,430.50
2016,08,08,09,09,431.80
2016,08,08,09,10,435.60
2016,08,08,09,11,437.90
2016,08,08,09,12,438.10
2016,08,08,09,13,439.30
2016,08,08,09,14,441.00
2016,08,08,09,15,442.10
2016,08,08,09,16,447.10
2016,08,08,09,17,454.00
2016,08,08,09,18,461.30
2016,08,08,09,19,465.00
2016,08,08,09,20,470.40
2016,08,08,09,21,482.80
2016,08,08,09,22,478.60
2016,08,08,09,23,486.80
2016,08,08,09,24,495.60
2016,08,08,09,25,529.40
2016,08,08,09,26,540.30
2016,08,08,09,27,554.00
2016,08,08,09,28,541.20
2016,08,08,09,29,469.00
2016,08,08,09,30,398.50
2016,08,08,09,31,231.80
2016,08,08,09,32,225.40
2016,08,08,09,33,244.00
2016,08,08,09,34,243.00
2016,08,08,09,35,236.00
2016,08,08,09,36,244.00
2016,08,08,09,37,227.90
2016,08,08,09,38,221.00
2016,08,08,09,39,394.50
2016,08,08,09,40,345.10
2016,08,08,09,41,406.30
2016,08,08,09,42,426.80
2016,08,08,09,43,576.70
2016,08,08,09,44,567.80
2016,08,08,09,45,557.50
2016,08,08,09,46,552.70
2016,08,08,09,47,548.80
2016,08,08,09,48,548.40
2016,08,08,09,49,552.00
2016,08,08,09,50,555.70
2016,08,08,09,51,560.90
2016,08,08,09,52,568.20
2016,08,08,09,53,570.00
2016,08,08,09,54,572.50
2016,08,08,09,55,577.50
2016,08,08,09,56,580.00
2016,08,08,09,57,580.00
2016,08,08,09,58,580.60
2016,08,08,09,59,585.10
2016,08,08,10,00,590.80
2016,08,08,10,01,597.80
2016,08,08,10,02,603.10
2016,08,08,10,03,608.70
2016,08,08,10,04,613.70
2016,08,08,10,05,618.60
2016,08,08,10,06,621.00
2016,08,08,10,07,621.00
2016,08,08,10,08,632.20
2016,08,08,10,09,647.00
2016,08,08,10,10,649.00
2016,08,08,10,11,649.00
2016,08,08,10,12,689.00
2016,08,08,10,13,689.00
2016,08,08,10,14,603.60
2016,08,08,10,15,262.00
2016,08,08,10,16,262.00
2016,08,08,10,17,454.80
2016,08,08,10,18,713.80
2016,08,08,10,19,677.00
2016,08,08,10,20,427.50
2016,08,08,10,21,304.20
2016,08,08,10,22,343.00
2016,08,08,10,23,643.80
2016,08,08,10,24,743.50
2016,08,08,10,25,747.00
2016,08,08,10,26,264.40
2016,08,08,10,27,247.30
2016,08,08,10,28,243.90
2016,08,08,10,29,260.00
2016,08,08,10,30,260.00
2016,08,08,10,31,446.50
2016,08,08,10,32,793.00
2016,08,08,10,33,793.00
2016,08,08,10,34,480.90
2016,08,08,10,35,190.60
2016,08,08,10,36,175.90
2016,08,08,10,37,167.10
2016,08,08,10,38,159.50
2016,08,08,10,39,158.00
2016,08,08,10,40,151.70
2016,08,08,10,41,152.90
2016,08,08,10,42,155.30
2016,08,08,10,43,159.40
2016,08,08,10,44,171.80
2016,08,08,10,45,193.90
2016,08,08,10,46,224.40
2016,08,08,10,47,251.20
2016,08,08,10,48,258.70
2016,08,08,10,49,255.00
2016,08,08,10,50,263.40
2016,08,08,10,51,282.60
2016,08,08,10,52,257.60
2016,08,08,10,53,231.80
2016,08,08,10,54,217.60
2016,08,08,10,55,203.40
2016,08,08,10,56,200.60
2016,08,08,10,57,208.80
2016,08,08,10,58,207.30
2016,08,08,10,59,209.80
2016,08,08,11,00,211.80
2016,08,08,11,01,207.20
2016,08,08,11,02,200.40
2016,08,08,11,03,194.10
2016,08,08,11,04,196.00
2016,08,08,11,05,200.80
2016,08,08,11,06,202.00
2016,08,08,11,07,200.60
2016,08,08,11,08,200.00
2016,08,08,11,09,199.10
2016,08,08,11,10,197.10
2016,08,08,11,11,197.00
2016,08,08,11,12,197.00
2016,08,08,11,13,195.90
2016,08,08,11,14,188.60
2016,08,08,11,15,181.50
2016,08,08,11,16,174.90
2016,08,08,11,17,168.20
2016,08,08,11,18,165.10
2016,08,08,11,19,160.20
2016,08,08,11,20,156.30
2016,08,08,11,21,151.10
2016,08,08,11,22,148.30
2016,08,08,11,23,146.40
2016,08,08,11,24,144.40
2016,08,08,11,25,144.00
2016,08,08,11,26,143.90
2016,08,08,11,27,142.20
2016,08,08,11,28,144.60
2016,08,08,11,29,148.20
2016,08,08,11,30,149.60
2016,08,08,11,31,151.00
2016,08,08,11,32,152.70
2016,08,08,11,33,158.10
2016,08,08,11,34,165.70
2016,08,08,11,35,172.00
2016,08,08,11,36,177.40
2016,08,08,11,37,186.70
2016,08,08,11,38,201.10
2016,08,08,11,39,209.90
2016,08,08,11,40,209.20
2016,08,08,11,41,207.00
2016,08,08,11,42,207.20
2016,08,08,11,43,211.10
2016,08,08,11,44,227.60
2016,08,08,11,45,251.70
2016,08,08,11,46,265.00
2016,08,08,11,47,265.00
2016,08,08,11,48,260.50
2016,08,08,11,49,255.00
2016,08,08,11,50,255.00
2016,08,08,11,51,624.80
2016,08,08,11,52,812.10
2016,08,08,11,53,800.20
2016,08,08,11,54,787.80
2016,08,08,11,55,779.70
2016,08,08,11,56,772.20
2016,08,08,11,57,769.80
2016,08,08,11,58,767.00
2016,08,08,11,59,761.00
2016,08,08,12,00,760.50
2016,08,08,12,01,760.40
2016,08,08,12,02,763.80
2016,08,08,12,03,765.00
2016,08,08,12,04,766.60
2016,08,08,12,05,766.30
2016,08,08,12,06,763.60
2016,08,08,12,07,763.00
2016,08,08,12,08,764.50
2016,08,08,12,09,763.30
2016,08,08,12,10,761.20
2016,08,08,12,11,763.00
2016,08,08,12,12,766.00
2016,08,08,12,13,766.00
2016,08,08,12,14,766.80
2016,08,08,12,15,770.00
2016,08,08,12,16,770.00
2016,08,08,12,17,769.20
2016,08,08,12,18,767.00
2016,08,08,12,19,768.20
2016,08,08,12,20,770.00
2016,08,08,12,21,771.30
2016,08,08,12,22,770.60
2016,08,08,12,23,772.20
2016,08,08,12,24,773.00
2016,08,08,12,25,773.00
2016,08,08,12,26,774.80
2016,08,08,12,27,773.20
2016,08,08,12,28,775.30
2016,08,08,12,29,777.40
2016,08,08,12,30,779.00
2016,08,08,12,31,779.00
2016,08,08,12,32,779.40
2016,08,08,12,33,780.00
2016,08,08,12,34,782.20
2016,08,08,12,35,784.00
2016,08,08,12,36,785.30
2016,08,08,12,37,786.00
2016,08,08,12,38,787.50
2016,08,08,12,39,790.50
2016,08,08,12,40,788.30
2016,08,08,12,41,789.00
2016,08,08,12,42,789.40
2016,08,08,12,43,793.00
2016,08,08,12,44,792.60
2016,08,08,12,45,792.10
2016,08,08,12,46,795.00
2016,08,08,12,47,795.00
2016,08,08,12,48,794.10
2016,08,08,12,49,794.10
2016,08,08,12,50,795.00
2016,08,08,12,51,797.00
2016,08,08,12,52,798.00
2016,08,08,12,53,796.40
2016,08,08,12,54,797.70
2016,08,08,12,55,799.90
2016,08,08,12,56,802.20
2016,08,08,12,57,806.60
2016,08,08,12,58,803.00
2016,08,08,12,59,802.80
2016,08,08,13,00,800.80
2016,08,08,13,01,797.30
2016,08,08,13,02,797.60
2016,08,08,13,03,800.00
2016,08,08,13,04,800.00
2016,08,08,13,05,801.80
2016,08,08,13,06,804.40
2016,08,08,13,07,802.90
2016,08,08,13,08,802.00
2016,08,08,13,09,802.00
2016,08,08,13,10,798.40
2016,08,08,13,11,800.20
2016,08,08,13,12,807.10
2016,08,08,13,13,809.20
2016,08,08,13,14,811.40
2016,08,08,13,15,817.00
2016,08,08,13,16,817.70
2016,08,08,13,17,819.70
2016,08,08,13,18,820.10
2016,08,08,13,19,817.90
2016,08,08,13,20,820.60
2016,08,08,13,21,817.20
2016,08,08,13,22,811.10
2016,08,08,13,23,810.00
2016,08,08,13,24,809.20
2016,08,08,13,25,809.00
2016,08,08,13,26,807.10
2016,08,08,13,27,807.00
2016,08,08,13,28,806.70
2016,08,08,13,29,804.60
2016,08,08,13,30,801.50
2016,08,08,13,31,797.00
2016,08,08,13,32,795.40
2016,08,08,13,33,796.00
2016,08,08,13,34,795.50
2016,08,08,13,35,795.00
2016,08,08,13,36,789.00
2016,08,08,13,37,783.20
2016,08,08,13,38,783.60
2016,08,08,13,39,787.40
2016,08,08,13,40,788.00
2016,08,08,13,41,795.50
2016,08,08,13,42,793.00
2016,08,08,13,43,792.20
2016,08,08,13,44,788.20
2016,08,08,13,45,788.70
2016,08,08,13,46,787.40
2016,08,08,13,47,786.00
2016,08,08,13,48,785.10
2016,08,08,13,49,784.00
2016,08,08,13,50,784.00
2016,08,08,13,51,785.30
2016,08,08,13,52,787.40
2016,08,08,13,53,790.40
2016,08,08,13,54,789.30
2016,08,08,13,55,790.80
2016,08,08,13,56,791.20
2016,08,08,13,57,797.10
2016,08,08,13,58,807.80
2016,08,08,13,59,810.20
2016,08,08,14,00,801.70
2016,08,08,14,01,800.50
2016,08,08,14,02,808.60
2016,08,08,14,03,815.30
2016,08,08,14,04,820.00
2016,08,08,14,05,821.80
2016,08,08,14,06,823.00
2016,08,08,14,07,824.00
2016,08,08,14,08,824.00
2016,08,08,14,09,815.60
2016,08,08,14,10,804.10
2016,08,08,14,11,804.70
2016,08,08,14,12,799.80
2016,08,08,14,13,798.60
2016,08,08,14,14,802.20
2016,08,08,14,15,805.70
2016,08,08,14,16,811.30
2016,08,08,14,17,809.60
2016,08,08,14,18,807.10
2016,08,08,14,19,808.80
2016,08,08,14,20,812.00
2016,08,08,14,21,824.70
2016,08,08,14,22,843.60
2016,08,08,14,23,849.00
2016,08,08,14,24,849.00
2016,08,08,14,25,874.20
2016,08,08,14,26,877.00
2016,08,08,14,27,877.00
2016,08,08,14,28,877.00
2016,08,08,14,29,877.00
2016,08,08,14,30,775.90
2016,08,08,14,31,540.00
2016,08,08,14,32,692.50
2016,08,08,14,33,954.00
2016,08,08,14,34,954.00
2016,08,08,14,35,637.80
2016,08,08,14,36,427.00
2016,08,08,14,37,427.00
2016,08,08,14,38,427.00
2016,08,08,14,39,427.00
2016,08,08,14,40,427.00
2016,08,08,14,41,427.00
2016,08,08,14,42,427.00
2016,08,08,14,43,427.00
2016,08,08,14,44,427.00
2016,08,08,14,45,427.00
2016,08,08,14,46,398.60
2016,08,08,14,47,341.20
2016,08,08,14,48,360.50
2016,08,08,14,49,387.00
2016,08,08,14,50,387.00
2016,08,08,14,51,717.80
2016,08,08,14,52,880.60
2016,08,08,14,53,850.00
2016,08,08,14,54,815.10
2016,08,08,14,55,796.50
2016,08,08,14,56,773.20
2016,08,08,14,57,772.00
2016,08,08,14,58,772.00
2016,08,08,14,59,737.20
2016,08,08,15,00,633.00
2016,08,08,15,01,674.70
2016,08,08,15,02,752.80
2016,08,08,15,03,755.80
2016,08,08,15,04,770.10
2016,08,08,15,05,801.60
2016,08,08,15,06,811.20
2016,08,08,15,07,809.00
2016,08,08,15,08,809.00
2016,08,08,15,09,809.00
2016,08,08,15,10,809.00
2016,08,08,15,11,807.20
2016,08,08,15,12,775.40
2016,08,08,15,13,796.00
2016,08,08,15,14,796.00
2016,08,08,15,15,796.00
2016,08,08,15,16,828.20
2016,08,08,15,17,882.40
2016,08,08,15,18,864.00
2016,08,08,15,19,839.70
2016,08,08,15,20,818.40
2016,08,08,15,21,785.30
2016,08,08,15,22,773.00
2016,08,08,15,23,773.00
2016,08,08,15,24,773.00
2016,08,08,15,25,447.20
2016,08,08,15,26,411.00
2016,08,08,15,27,730.30
2016,08,08,15,28,723.00
2016,08,08,15,29,717.00
2016,08,08,15,30,717.00
2016,08,08,15,31,716.10
2016,08,08,15,32,677.80
2016,08,08,15,33,619.00
2016,08,08,15,34,400.60
2016,08,08,15,35,200.20
2016,08,08,15,36,170.40
2016,08,08,15,37,163.40
2016,08,08,15,38,183.00
2016,08,08,15,39,199.80
2016,08,08,15,40,222.70
2016,08,08,15,41,249.00
2016,08,08,15,42,228.70
2016,08,08,15,43,217.40
2016,08,08,15,44,214.80
2016,08,08,15,45,217.50
2016,08,08,15,46,215.10
2016,08,08,15,47,211.50
2016,08,08,15,48,243.20
2016,08,08,15,49,257.00
2016,08,08,15,50,235.30
2016,08,08,15,51,227.60
2016,08,08,15,52,213.20
2016,08,08,15,53,236.20
2016,08,08,15,54,243.00
2016,08,08,15,55,243.00
2016,08,08,15,56,288.20
2016,08,08,15,57,338.00
2016,08,08,15,58,338.00
2016,08,08,15,59,338.00
2016,08,08,16,00,338.00
2016,08,08,16,01,302.00
2016,08,08,16,02,234.40
2016,08,08,16,03,253.30
2016,08,08,16,04,267.00
2016,08,08,16,05,267.00
2016,08,08,16,06,257.20
2016,08,08,16,07,304.60
2016,08,08,16,08,323.00
2016,08,08,16,09,323.00
2016,08,08,16,10,323.00
2016,08,08,16,11,321.80
2016,08,08,16,12,299.90
2016,08,08,16,13,305.90
2016,08,08,16,14,293.10
2016,08,08,16,15,287.00
2016,08,08,16,16,287.00
2016,08,08,16,17,485.80
2016,08,08,16,18,778.30
2016,08,08,16,19,765.00
2016,08,08,16,20,709.40
2016,08,08,16,21,677.00
2016,08,08,16,22,677.00
2016,08,08,16,23,688.20
2016,08,08,16,24,685.00
2016,08,08,16,25,686.70
2016,08,08,16,26,658.50
2016,08,08,16,27,623.40
2016,08,08,16,28,651.60
2016,08,08,16,29,590.50
2016,08,08,16,30,601.00
2016,08,08,16,31,517.30
2016,08,08,16,32,336.00
2016,08,08,16,33,487.00
2016,08,08,16,34,638.00
2016,08,08,16,35,342.80
2016,08,08,16,36,144.70
2016,08,08,16,37,144.00
2016,08,08,16,38,142.40
2016,08,08,16,39,135.20
2016,08,08,16,40,132.20
2016,08,08,16,41,125.40
2016,08,08,16,42,112.00
2016,08,08,16,43,99.50
2016,08,08,16,44,86.00
2016,08,08,16,45,86.00
2016,08,08,16,46,89.20
2016,08,08,16,47,95.00
2016,08,08,16,48,93.20
2016,08,08,16,49,91.00
2016,08,08,16,50,90.40
2016,08,08,16,51,87.50
2016,08,08,16,52,84.60
2016,08,08,16,53,95.20
2016,08,08,16,54,117.60
2016,08,08,16,55,130.90
2016,08,08,16,56,134.40
2016,08,08,16,57,124.80
2016,08,08,16,58,124.80
2016,08,08,16,59,135.00
2016,08,08,17,00,134.80
2016,08,08,17,01,137.60
2016,08,08,17,02,150.80
2016,08,08,17,03,157.00
2016,08,08,17,04,157.10
2016,08,08,17,05,158.00
2016,08,08,17,06,156.70
2016,08,08,17,07,184.70
2016,08,08,17,08,173.30
2016,08,08,17,09,151.60
2016,08,08,17,10,155.20
2016,08,08,17,11,161.70